TimeCDT,TemperatureF,Dew PointF,Humidity,Sea Level PressureIn,VisibilityMPH,Wind Direction,Wind SpeedMPH,Gust SpeedMPH,PrecipitationIn,Events,Conditions,WindDirDegrees,DateUTC
12:53 AM,73.9,66.9,79,29.64,10.0,South,15.0,20.7,N/A,,Clear,170,2013-05-27 05:53:00
1:53 AM,73.0,66.0,79,29.62,10.0,South,12.7,20.7,N/A,,Clear,180,2013-05-27 06:53:00
2:53 AM,72.0,66.0,81,29.59,10.0,South,17.3,26.5,N/A,,Clear,180,2013-05-27 07:53:00
3:53 AM,71.1,64.9,81,29.60,10.0,Variable,5.8,-,N/A,,Clear,0,2013-05-27 08:53:00
4:53 AM,70.0,64.9,84,29.56,10.0,South,10.4,-,N/A,,Clear,170,2013-05-27 09:53:00
5:53 AM,69.1,64.9,87,29.62,10.0,NNE,17.3,20.7,N/A,,Partly Cloudy,20,2013-05-27 10:53:00
6:53 AM,68.0,64.9,90,29.60,10.0,East,10.4,-,N/A,,Clear,80,2013-05-27 11:53:00
7:46 AM,69.8,66.2,88,29.66,10.0,ESE,16.1,-,N/A,,Partly Cloudy,110,2013-05-27 12:46:00
7:53 AM,71.1,66.9,87,29.60,10.0,ENE,11.5,20.7,N/A,,Clear,70,2013-05-27 12:53:00
8:02 AM,71.6,66.2,83,29.67,10.0,East,13.8,-,N/A,,Partly Cloudy,100,2013-05-27 13:02:00
8:53 AM,73.9,66.9,79,29.60,10.0,East,18.4,24.2,N/A,,Clear,90,2013-05-27 13:53:00
9:53 AM,75.0,66.9,76,29.60,10.0,ESE,20.7,26.5,N/A,,Mostly Cloudy,110,2013-05-27 14:53:00
10:00 AM,77.0,66.2,69,29.68,10.0,East,19.6,28.8,N/A,,Scattered Clouds,90,2013-05-27 15:00:00
10:41 AM,78.8,66.2,65,29.69,10.0,East,20.7,28.8,N/A,,Mostly Cloudy,90,2013-05-27 15:41:00
10:53 AM,80.1,64.9,60,29.61,10.0,East,16.1,28.8,N/A,,Mostly Cloudy,90,2013-05-27 15:53:00
11:53 AM,75.9,64.9,69,29.62,10.0,ENE,21.9,28.8,N/A,,Mostly Cloudy,60,2013-05-27 16:53:00
12:53 PM,82.0,66.0,58,29.60,10.0,ESE,19.6,29.9,N/A,,Mostly Cloudy,110,2013-05-27 17:53:00
1:40 PM,82.4,66.2,58,29.65,10.0,ESE,20.7,28.8,N/A,,Partly Cloudy,110,2013-05-27 18:40:00
1:53 PM,82.0,66.0,58,29.57,10.0,ESE,21.9,31.1,N/A,,Partly Cloudy,110,2013-05-27 18:53:00
2:53 PM,84.9,66.9,55,29.55,10.0,East,16.1,25.3,N/A,,Clear,100,2013-05-27 19:53:00
3:53 PM,89.1,68.0,50,29.50,10.0,East,12.7,-,N/A,,Clear,90,2013-05-27 20:53:00
4:53 PM,87.1,69.1,55,29.50,10.0,North,15.0,23.0,N/A,,Clear,10,2013-05-27 21:53:00
5:53 PM,82.0,68.0,62,29.49,10.0,North,19.6,26.5,N/A,,Clear,350,2013-05-27 22:53:00
6:53 PM,82.9,64.9,54,29.51,10.0,NW,17.3,24.2,N/A,,Clear,310,2013-05-27 23:53:00
7:53 PM,79.0,64.9,62,29.55,10.0,NNW,11.5,-,N/A,,Clear,330,2013-05-28 00:53:00
8:53 PM,75.9,64.0,67,29.57,10.0,North,10.4,-,N/A,,Partly Cloudy,10,2013-05-28 01:53:00
9:53 PM,70.0,62.1,76,29.54,10.0,North,10.4,-,N/A,,Clear,350,2013-05-28 02:53:00
10:53 PM,68.0,63.0,84,29.61,10.0,North,15.0,-,N/A,,Clear,10,2013-05-28 03:53:00
11:53 PM,64.0,61.0,90,29.63,10.0,East,5.8,-,N/A,,Clear,80,2013-05-28 04:53:00